Terminal Aerodrome Forecast
Issued by NWS Oklahoma City, OK

Home | Current Version | Previous Version | Text Only | Print | Product List | Glossary On
Versions: 1 2 3 4 5 6 7 8 9 10 11 12 13 14 15 16 17 18 19 20 21 22 23 24 25 26
000
FTUS44 KOUN 251139
TAFOUN
TAF
KOUN 251139Z 2512/2612 32017G25KT P6SM BKN015
     FM251500 33014KT P6SM BKN030
     FM252200 34008KT P6SM SCT250
     FM260700 12005KT P6SM BKN250=

USA.gov is the U.S. government's official web portal to all federal, state and local government web resources and services.